World > North America > United States > Pennsylvania > Connoquenessing  

Connoquenessing, PA Hourly Weather Updates

Feedback E-mail the Weather

Quick Clicks

Connoquenessing, PA Weather Maps

°F °C°F °C
Connoquenessing Weather Map
UTC Time: 7/13/2024, 00:19
Your Time:

Connoquenessing, PA Regional Weather

Expires:202407130100;;920255
ASUS41 KCTP 130010
RWRCTP

REGIONAL WEATHER ROUNDUP
NATIONAL WEATHER SERVICE STATE COLLEGE PA
800 PM EDT FRI JUL 12 2024

Note: "fair" indicates few or no clouds below 12,000 feet with no 
significant weather and/or obstructions to visibility.

* = STATION THAT DOES NOT REPORT PRECIPITATION /E.G. RAIN...SNOW...ETC/
    THUNDER OR FOG.


PAZ002>004-007>009-013>016-020>023-029>032-130100-
WESTERN PENNSYLVANIA
  
CITY           SKY/WX    TMP DP  RH WIND       PRES   REMARKS
ERIE           FAIR      78  64  61 CALM      30.14R                  
MEADVILLE      FAIR      80  65  59 MISG      30.16R                  
FRANKLIN       FAIR      79  65  62 CALM      30.18R                  
NEW CASTLE     FAIR      81  69  67 CALM      30.15R                  
BEAVER COUNTY  FAIR      84  59  41 NE3       30.15S                  
BUTLER         FAIR      83  64  52 N3        30.16R                  
PITTSBURGH INT FAIR      88  58  36 N5        30.13S                  
PITTSBURGH     FAIR      87  58  37 CALM      30.13R                  
INDIANA*       CLEAR     84  59  42 N3        30.18S                  
LATROBE        CLEAR     86  59  39 VRB7      30.14R                  
CONNELLSVILLE  FAIR      86  55  35 N6        30.14R                  
WASHINGTON CO* FAIR      85  62  46 NE5       30.16R                  
$$


SKY/WX - Weather  TMP - Temperature  DP - Dew Point  RH - Humidity
WIND - Wind Direction/Speed PRES - Barometric Pressure VSB - Visibility
WCI - Wind Chill Index E13G22 Wind - East Wind 13 mph/Gusts of 22 mph

Trending Headlines

Trending Entertainment Headlines

Connoquenessing Radar Loop

Use the map search tool if you want to place a location marker on the radar map...

Connoquenessing Quick Facts

National Two Day Weather Forecast


E-mail the Connoquenessing Weather Forecast

Voice your opinion or tell us about page issues...